User: anonymous   Login
Location: Laguna de la Cañada del Gallo
(40.3974°N, 5.2096°W)
Time: 02:08:31
(UTC+00:00)
Language:

SL-4 R/B - Orbit

View from above orbital plane
View from above orbital plane
View from above satellite
View from above satellite

Ground track
Ground track

The orbit data is extracted from the following two-line orbital elements,

1 39679U 14021B   24167.39136039  .00012654  00000-0  46763-3 0  9993
2 39679  51.6090 137.4560 0137117 351.8040   8.0696 15.19676731559491
Epoch (UTC): 15 June 2024 09:23:33
Eccentricity: 0.0137117
inclination: 51.6090°
perigee height: 412 km
apogee height: 601 km
right ascension of ascending node: 137.4560°
argument of perigee: 351.8040°
revolutions per day: 15.19676731
mean anomaly at epoch: 8.0696°
orbit number at epoch: 55949

The dashed part of the orbit path shows where the satellite is in the earth's shadow,  

DLR